Weather History for Preston, MN

Change the Weather History Date:

Saturday, December 17, 2011

  Actual Average (KRST) Record (KRST)
Temperature  
Mean Temperature 30 °F 19 °F  
Max Temperature 34 °F 26 °F 63 °F (1939)
Min Temperature 25 °F 11 °F -22 °F (1983)
Degree Days  
Heating Degree Days 36 46  
Month to date heating degree days 737  
Since 1 July heating degree days 2409  
Cooling Degree Days 0 0  
Month to date cooling degree days 0  
Year to date cooling degree days 585  
Moisture  
Dew Point 26 °F    
Average Humidity 87    
Maximum Humidity 93    
Minimum Humidity 78    
Precipitation  
Precipitation 0.01 in 0.03 in 0.70 in (1908)
Month to date precipitation 0.76  
Year to date precipitation 32.55  
Snow  
Snow 0.00 in 0.40 in 7.00 in (1908)
Month to date snowfall 7.2  
Since 1 July snowfall 14.1  
Snow Depth -    
Sea Level Pressure  
Sea Level Pressure 30.18 in    
Wind  
Wind Speed 4 mph (WSW)    
Max Wind Speed 13 mph    
Max Gust Speed 16 mph    
Visibility 8 miles    
Events Snow    
T = Trace of Precipitation, MM = Missing Value Source: NWS Daily Summary

Daily Weather History Graph

Daily Weather History Graph

Search for Another Location

Airport:

Trip Planner

Search our weather history database for the weather conditions in past years. The results will help you decide how hot, cold, wet, or windy it might be!

Date:

Astronomy

Dec. 17, 2011 Rise Set
Actual Time 7:36 AM CST 4:32 PM CST
Civil Twilight 7:03 AM CST 5:05 PM CST
Nautical Twilight 6:27 AM CST 5:42 PM CST
Astronomical Twilight 5:52 AM CST 6:17 PM CST
Moon No Moon Rise 11:39 AM CST (12/17)
Length of Visible Light 10h 02m
Length of Day
8h 56m
Waning Gibbous, 53% of the Moon is Illuminated
Dec 17
Waning Gibbous
Dec 17
Last Quarter
Dec 24
New
Jan 1
First Quarter
Jan 9
Full

Hourly Weather History & Observations

Time (CST) Temp. Windchill Dew Point Humidity Pressure Visibility Wind Dir Wind Speed Gust Speed Precip Events Conditions
12:12 AM 27.0 °F - 24.8 °F 92% 30.28 in 7.0 mi Calm Calm - N/A   Overcast
12:33 AM 26.6 °F 22.6 °F 24.6 °F 92% 30.27 in 7.0 mi East 3.5 mph - N/A Snow Light Snow
1:12 AM 26.6 °F - 24.8 °F 93% 30.26 in 5.0 mi Calm Calm - N/A Snow Light Snow
1:32 AM 26.6 °F - 24.6 °F 92% 30.26 in 5.0 mi Calm Calm - 0.01 in Snow Light Snow
1:52 AM 26.6 °F - 24.4 °F 92% 30.25 in 5.0 mi Calm Calm - 0.01 in Snow Light Snow
2:13 AM 26.6 °F 22.6 °F 24.4 °F 92% 30.24 in 5.0 mi ESE 3.5 mph - N/A Snow Light Snow
2:32 AM 26.6 °F 22.6 °F 24.4 °F 92% 30.25 in 5.0 mi ESE 3.5 mph - N/A Snow Light Snow
2:52 AM 26.2 °F 22.1 °F 24.1 °F 92% 30.24 in 5.0 mi ESE 3.5 mph - N/A   Overcast
3:12 AM 25.7 °F - 23.5 °F 92% 30.25 in 7.0 mi Calm Calm - N/A   Overcast
3:32 AM 25.0 °F - 22.8 °F 91% 30.24 in 5.0 mi Calm Calm - N/A   Overcast
3:51 AM 25.5 °F - 23.4 °F 92% 30.24 in 5.0 mi Calm Calm - N/A   Overcast
4:12 AM 25.7 °F - 23.5 °F 92% 30.23 in 7.0 mi Calm Calm - N/A   Overcast
4:32 AM 26.1 °F - 23.9 °F 92% 30.23 in 7.0 mi Calm Calm - N/A   Overcast
4:52 AM 25.7 °F - 23.7 °F 92% 30.22 in 7.0 mi Calm Calm - N/A   Overcast
5:12 AM 26.1 °F - 23.9 °F 92% 30.21 in 7.0 mi Calm Calm - N/A   Overcast
5:33 AM 26.1 °F - 23.9 °F 92% 30.21 in 7.0 mi Calm Calm - N/A   Overcast
5:52 AM 26.2 °F - 23.9 °F 91% 30.21 in 7.0 mi Calm Calm - N/A   Overcast
6:13 AM 26.2 °F - 23.9 °F 91% 30.21 in 7.0 mi Calm Calm - N/A   Overcast
7:12 AM 26.1 °F 21.9 °F 23.9 °F 92% 30.19 in 7.0 mi South 3.5 mph - N/A   Overcast
7:32 AM 26.1 °F - 23.9 °F 92% 30.19 in 7.0 mi Calm Calm - N/A   Overcast
7:52 AM 26.4 °F 22.4 °F 24.3 °F 92% 30.21 in 7.0 mi SSW 3.5 mph - N/A   Overcast
8:11 AM 26.6 °F 22.6 °F 24.4 °F 92% 30.20 in 7.0 mi SSW 3.5 mph - N/A   Overcast
8:32 AM 27.1 °F 21.8 °F 24.8 °F 91% 30.19 in 7.0 mi SW 4.6 mph - N/A   Overcast
9:12 AM 27.5 °F 23.6 °F 25.5 °F 92% 30.19 in 7.0 mi SSW 3.5 mph - N/A   Overcast
9:32 AM 28.4 °F - 26.4 °F 92% 30.19 in 7.0 mi Calm Calm - N/A   Overcast
9:52 AM 28.8 °F - 26.6 °F 92% 30.19 in 7.0 mi Calm Calm - N/A   Overcast
10:12 AM 29.5 °F 25.9 °F 27.3 °F 92% 30.20 in 7.0 mi SW 3.5 mph - N/A   Overcast
10:32 AM 30.6 °F 25.8 °F 27.1 °F 87% 30.19 in 7.0 mi SW 4.6 mph - N/A   Overcast
10:52 AM 31.6 °F 25.1 °F 27.0 °F 83% 30.20 in 10.0 mi WSW 6.9 mph - N/A   Overcast
11:12 AM 32.0 °F 25.6 °F 26.1 °F 79% 30.19 in 10.0 mi WSW 6.9 mph - N/A   Overcast
11:32 AM 32.0 °F 25.6 °F 26.6 °F 80% 30.17 in 10.0 mi WSW 6.9 mph - N/A   Overcast
11:52 AM 32.0 °F 23.6 °F 26.6 °F 80% 30.17 in 10.0 mi West 10.4 mph - N/A   Overcast
12:12 PM 32.0 °F 23.0 °F 26.6 °F 80% 30.17 in 7.0 mi West 11.5 mph - N/A   Overcast
12:32 PM 32.4 °F 24.6 °F 26.8 °F 80% 30.16 in 10.0 mi West 9.2 mph - N/A   Overcast
12:53 PM 32.9 °F 26.7 °F 27.1 °F 79% 30.14 in 10.0 mi West 6.9 mph - N/A   Overcast
1:13 PM 32.9 °F 23.7 °F 27.3 °F 80% 30.15 in 10.0 mi West 12.7 mph - N/A   Overcast
1:32 PM 33.3 °F 24.6 °F 27.3 °F 79% 30.14 in 10.0 mi West 11.5 mph 16.1 mph N/A   Overcast
1:52 PM 33.8 °F 25.3 °F 27.7 °F 78% 30.12 in 10.0 mi WSW 11.5 mph - N/A   Overcast
2:12 PM 34.0 °F 27.2 °F 27.7 °F 78% 30.11 in 10.0 mi WSW 8.1 mph - N/A   Mostly Cloudy
2:32 PM 33.8 °F 25.3 °F 27.5 °F 78% 30.10 in 10.0 mi WSW 11.5 mph - N/A   Scattered Clouds
2:52 PM 34.0 °F 26.0 °F 27.7 °F 78% 30.11 in 10.0 mi WSW 10.4 mph - N/A   Clear
3:12 PM 33.8 °F 26.4 °F 28.0 °F 79% 30.10 in 10.0 mi WSW 9.2 mph - N/A   Scattered Clouds
3:32 PM 34.2 °F 26.8 °F 28.4 °F 79% 30.10 in 10.0 mi WSW 9.2 mph - N/A   Clear
3:52 PM 33.8 °F 27.0 °F 28.4 °F 81% 30.12 in 10.0 mi West 8.1 mph - N/A   Clear
4:32 PM 32.5 °F 24.8 °F 28.2 °F 84% 30.12 in 10.0 mi WSW 9.2 mph - N/A   Clear
4:52 PM 32.2 °F 25.0 °F 28.0 °F 85% 30.12 in 10.0 mi WSW 8.1 mph - N/A   Clear
5:12 PM 32.0 °F 23.6 °F 28.2 °F 86% 30.12 in 10.0 mi WSW 10.4 mph - N/A   Clear
5:32 PM 32.0 °F 23.6 °F 27.5 °F 83% 30.13 in 10.0 mi West 10.4 mph - N/A   Clear
5:53 PM 30.4 °F 21.5 °F 26.2 °F 85% 30.13 in 10.0 mi West 10.4 mph - N/A   Clear
6:12 PM 30.0 °F 21.1 °F 25.7 °F 84% 30.14 in 10.0 mi West 10.4 mph - N/A   Clear
6:32 PM 29.5 °F 21.1 °F 25.7 °F 86% 30.14 in 10.0 mi West 9.2 mph - N/A   Clear
6:51 PM 30.0 °F 20.5 °F 25.7 °F 84% 30.14 in 10.0 mi West 11.5 mph - N/A   Clear
7:12 PM 30.2 °F 20.8 °F 25.7 °F 83% 30.14 in 10.0 mi West 11.5 mph - N/A   Clear
7:32 PM 30.2 °F 20.2 °F 26.1 °F 85% 30.14 in 10.0 mi West 12.7 mph - N/A   Clear
7:52 PM 29.7 °F 20.7 °F 25.0 °F 83% 30.14 in 10.0 mi West 10.4 mph - N/A   Clear
8:12 PM 28.9 °F 20.4 °F 24.6 °F 84% 30.14 in 10.0 mi West 9.2 mph - N/A   Clear
8:31 PM 28.4 °F 19.7 °F 24.6 °F 86% 30.15 in 10.0 mi West 9.2 mph - N/A   Clear
8:52 PM 28.4 °F 20.4 °F 24.3 °F 84% 30.15 in 10.0 mi West 8.1 mph - N/A   Clear
9:12 PM 28.2 °F 20.2 °F 23.9 °F 84% 30.15 in 10.0 mi West 8.1 mph - N/A   Clear
9:32 PM 27.7 °F 18.8 °F 23.4 °F 84% 30.15 in 10.0 mi West 9.2 mph - N/A   Clear
9:52 PM 27.5 °F 18.6 °F 23.0 °F 83% 30.15 in 10.0 mi West 9.2 mph - N/A   Clear
10:12 PM 26.2 °F 18.6 °F 22.6 °F 86% 30.16 in 10.0 mi WNW 6.9 mph - N/A   Clear
10:32 PM 27.3 °F 18.4 °F 23.0 °F 84% 30.16 in 10.0 mi West 9.2 mph - N/A   Clear
10:52 PM 25.7 °F 17.1 °F 22.1 °F 86% 30.16 in 10.0 mi West 8.1 mph - N/A   Clear
11:12 PM 27.3 °F 20.9 °F 23.2 °F 84% 30.15 in 10.0 mi WNW 5.8 mph - N/A   Clear
11:32 PM 27.3 °F 20.9 °F 23.5 °F 86% 30.15 in 10.0 mi WNW 5.8 mph - N/A   Clear